Weather History for KROX - December, 2013

Change the Weather History Date:

Monday, December 2, 2013

  Actual Average (KBDE) Record (KBDE)
Temperature  
Mean Temperature 22 °F -  
Max Temperature 24 °F 22 °F - (-1)
Min Temperature 19 °F 6 °F - (-1)
Degree Days  
Heating Degree Days 44    
Moisture  
Dew Point 17 °F    
Average Humidity 81    
Maximum Humidity 86    
Minimum Humidity 74    
Precipitation  
Precipitation 0.00 in - - ()
Sea Level Pressure  
Sea Level Pressure 29.80 in    
Wind  
Wind Speed 14 mph (ENE)    
Max Wind Speed 24 mph    
Max Gust Speed 29 mph    
Visibility 7 miles    
Events Snow    
Averages and records for this station are not official NWS values.
T = Trace of Precipitation, MM = Missing Value Source: NWS Daily Summary

Daily Weather History Graph

Daily Weather History Graph

Search for Another Location

Airport or City:

Trip Planner

Search our weather history database for the weather conditions in past years. The results will help you decide how hot, cold, wet, or windy it might be!

Date:

Astronomy

Dec. 02, 2013 Rise Set
Actual Time 7:56 AM CST 4:27 PM CST
Civil Twilight 7:20 AM CST 5:04 PM CST
Nautical Twilight 6:40 AM CST 5:44 PM CST
Astronomical Twilight 6:02 AM CST 6:22 PM CST
Moon 7:19 AM CST 4:34 PM CST
Length of Visible Light 9h 44m
Length of Day
8h 31m
Waning Crescent, 0% of the Moon is Illuminated
Dec 2
Waning Crescent
Dec 2
New
Dec 9
First Quarter
Dec 17
Full
Dec 25
Last Quarter

Hourly Weather History & Observations

Time (CST) Temp. Windchill Dew Point Humidity Pressure Visibility Wind Dir Wind Speed Gust Speed Precip Events Conditions
12:14 AM 19.4 °F 10.4 °F 15.8 °F 86% 29.91 in 10.0 mi East 6.9 mph - N/A   Overcast
12:34 AM 19.4 °F 10.4 °F 15.8 °F 86% 29.91 in 10.0 mi East 6.9 mph - N/A   Mostly Cloudy
12:54 AM 19.4 °F 9.5 °F 15.8 °F 86% 29.90 in 10.0 mi East 8.1 mph - N/A   Scattered Clouds
1:14 AM 19.4 °F 8.6 °F 14.0 °F 80% 29.89 in 10.0 mi East 9.2 mph - N/A   Mostly Cloudy
1:34 AM 19.4 °F 7.2 °F 14.0 °F 80% 29.88 in 10.0 mi East 11.5 mph - N/A   Scattered Clouds
1:54 AM 19.4 °F 8.6 °F 14.0 °F 80% 29.88 in 7.0 mi East 9.2 mph - N/A   Scattered Clouds
2:14 AM 19.4 °F 7.9 °F 14.0 °F 80% 29.87 in 4.0 mi East 10.4 mph - N/A Snow Light Snow
2:34 AM 19.4 °F 7.9 °F 14.0 °F 80% 29.87 in 3.0 mi East 10.4 mph - N/A Snow Light Snow
2:54 AM 19.4 °F 8.6 °F 14.0 °F 80% 29.86 in 1.8 mi East 9.2 mph - N/A Snow Light Snow
3:14 AM 19.4 °F 7.9 °F 14.0 °F 80% 29.85 in 2.0 mi East 10.4 mph - N/A Snow Light Snow
3:34 AM 19.4 °F 7.2 °F 14.0 °F 80% 29.85 in 2.0 mi East 11.5 mph - N/A Snow Light Snow
3:54 AM 19.4 °F 7.2 °F 15.8 °F 86% 29.84 in 2.0 mi East 11.5 mph - N/A Snow Light Snow
4:14 AM 19.4 °F 7.9 °F 15.8 °F 86% 29.84 in 2.5 mi East 10.4 mph - N/A Snow Light Snow
4:34 AM 19.4 °F 7.9 °F 15.8 °F 86% 29.83 in 2.5 mi East 10.4 mph - N/A Snow Light Snow
4:54 AM 19.4 °F 7.2 °F 14.0 °F 80% 29.82 in 2.5 mi East 11.5 mph - N/A Snow Light Snow
5:14 AM 19.4 °F 7.2 °F 14.0 °F 80% 29.81 in 2.5 mi East 11.5 mph - N/A Snow Light Snow
5:34 AM 19.4 °F 6.6 °F 14.0 °F 80% 29.81 in 3.0 mi East 12.7 mph - N/A Snow Light Snow
5:54 AM 19.4 °F 7.9 °F 14.0 °F 80% 29.80 in 4.0 mi East 10.4 mph - N/A Snow Light Snow
6:14 AM 19.4 °F 7.2 °F 14.0 °F 80% 29.80 in 4.0 mi East 11.5 mph - N/A Snow Light Snow
6:34 AM 19.4 °F 6.6 °F 14.0 °F 80% 29.80 in 5.0 mi East 12.7 mph - N/A Snow Light Snow
6:54 AM 19.4 °F 6.6 °F 15.8 °F 86% 29.80 in 10.0 mi East 12.7 mph - N/A   Overcast
7:14 AM 19.4 °F 6.6 °F 15.8 °F 86% 29.80 in 4.0 mi East 12.7 mph - N/A Snow Light Snow
7:34 AM 19.4 °F 6.6 °F 15.8 °F 86% 29.79 in 4.0 mi East 12.7 mph - N/A Snow Light Snow
7:54 AM 19.4 °F 6.0 °F 15.8 °F 86% 29.79 in 4.0 mi East 13.8 mph - N/A Snow Light Snow
8:14 AM 21.2 °F 9.5 °F 15.8 °F 80% 29.79 in 5.0 mi East 11.5 mph - N/A   Haze
8:34 AM 21.2 °F 8.3 °F 15.8 °F 80% 29.79 in 1.5 mi East 13.8 mph - N/A Snow Light Snow
8:54 AM 21.2 °F 8.3 °F 15.8 °F 80% 29.78 in 5.0 mi ENE 13.8 mph - N/A   Haze
9:14 AM 21.2 °F 7.3 °F 17.6 °F 86% 29.78 in 3.0 mi ENE 16.1 mph - N/A Snow Light Snow
9:34 AM 21.2 °F 6.4 °F 17.6 °F 86% 29.78 in 1.0 mi ENE 18.4 mph - N/A Snow Light Snow
9:54 AM 21.2 °F 6.8 °F 17.6 °F 86% 29.77 in 2.5 mi ENE 17.3 mph - N/A Snow Light Snow
10:14 AM 23.0 °F 9.6 °F 17.6 °F 80% 29.78 in 7.0 mi East 16.1 mph - N/A   Overcast
10:34 AM 23.0 °F 9.6 °F 17.6 °F 80% 29.78 in 10.0 mi ENE 16.1 mph - N/A   Overcast
10:54 AM 24.8 °F 10.7 °F 19.4 °F 80% 29.77 in 10.0 mi East 19.6 mph - N/A   Mostly Cloudy
11:14 AM 24.8 °F 11.5 °F 19.4 °F 80% 29.77 in 10.0 mi East 17.3 mph - N/A   Mostly Cloudy
11:34 AM 24.8 °F 10.7 °F 19.4 °F 80% 29.76 in 10.0 mi ENE 19.6 mph - N/A   Mostly Cloudy
11:54 AM 24.8 °F 11.1 °F 19.4 °F 80% 29.76 in 10.0 mi East 18.4 mph 24.2 mph N/A   Overcast
12:15 PM 24.8 °F 11.1 °F 19.4 °F 80% 29.76 in 7.0 mi ENE 18.4 mph - N/A   Overcast
12:34 PM 24.8 °F 11.1 °F 19.4 °F 80% 29.75 in 7.0 mi ENE 18.4 mph 26.5 mph N/A   Overcast
12:54 PM 24.8 °F 10.0 °F 19.4 °F 80% 29.75 in 7.0 mi ENE 21.9 mph 25.3 mph N/A   Overcast
1:14 PM 24.8 °F 11.1 °F 19.4 °F 80% 29.75 in 10.0 mi ENE 18.4 mph - N/A   Overcast
1:34 PM 24.8 °F 9.6 °F 19.4 °F 80% 29.74 in 7.0 mi ENE 23.0 mph - N/A   Overcast
1:54 PM 24.8 °F 9.3 °F 19.4 °F 80% 29.74 in 5.0 mi ENE 24.2 mph - N/A   Haze
2:14 PM 24.8 °F 9.3 °F 19.4 °F 80% 29.74 in 5.0 mi ENE 24.2 mph - N/A   Haze
2:34 PM 24.8 °F 9.6 °F 19.4 °F 80% 29.74 in 5.0 mi ENE 23.0 mph 27.6 mph N/A   Haze
2:54 PM 24.8 °F 9.6 °F 19.4 °F 80% 29.73 in 3.0 mi ENE 23.0 mph 27.6 mph N/A   Haze
3:14 PM 24.8 °F 9.6 °F 19.4 °F 80% 29.73 in 3.0 mi ENE 23.0 mph - N/A   Haze
3:34 PM 24.8 °F 10.7 °F 19.4 °F 80% 29.74 in 4.0 mi ENE 19.6 mph - N/A   Haze
3:54 PM 24.8 °F 10.3 °F 19.4 °F 80% 29.74 in 5.0 mi ENE 20.7 mph - N/A   Haze
4:14 PM 24.8 °F 10.3 °F 19.4 °F 80% 29.74 in 5.0 mi NE 20.7 mph - N/A   Haze
4:34 PM 24.8 °F 9.6 °F 19.4 °F 80% 29.75 in 4.0 mi NE 23.0 mph 28.8 mph N/A   Haze
4:54 PM 24.8 °F 10.0 °F 19.4 °F 80% 29.75 in 7.0 mi NE 21.9 mph 26.5 mph N/A   Scattered Clouds
5:14 PM 24.8 °F 10.3 °F 19.4 °F 80% 29.76 in 7.0 mi NE 20.7 mph - N/A   Scattered Clouds
5:34 PM 24.8 °F 10.3 °F 19.4 °F 80% 29.76 in 10.0 mi NE 20.7 mph 25.3 mph N/A   Scattered Clouds
5:54 PM 23.0 °F 8.0 °F 17.6 °F 80% 29.77 in 10.0 mi NE 20.7 mph - N/A   Clear
6:14 PM 23.0 °F 8.3 °F 17.6 °F 80% 29.78 in 10.0 mi NE 19.6 mph 23.0 mph N/A   Clear
6:34 PM 23.0 °F 8.7 °F 17.6 °F 80% 29.78 in 10.0 mi NE 18.4 mph - N/A   Clear
6:54 PM 23.0 °F 8.3 °F 17.6 °F 80% 29.78 in 10.0 mi NE 19.6 mph 23.0 mph N/A   Mostly Cloudy
7:14 PM 23.0 °F 8.0 °F 17.6 °F 80% 29.79 in 10.0 mi NE 20.7 mph - N/A   Mostly Cloudy
7:34 PM 23.0 °F 8.0 °F 17.6 °F 80% 29.79 in 10.0 mi NE 20.7 mph 26.5 mph N/A   Overcast
7:54 PM 24.8 °F 10.3 °F 17.6 °F 74% 29.80 in 10.0 mi NE 20.7 mph - N/A   Overcast
8:14 PM 23.0 °F 7.6 °F 17.6 °F 80% 29.80 in 10.0 mi NE 21.9 mph 26.5 mph N/A   Overcast
8:34 PM 23.0 °F 8.0 °F 17.6 °F 80% 29.80 in 10.0 mi NE 20.7 mph - N/A   Overcast
8:54 PM 23.0 °F 8.7 °F 17.6 °F 80% 29.81 in 10.0 mi NE 18.4 mph 25.3 mph N/A   Overcast
9:14 PM 23.0 °F 8.0 °F 17.6 °F 80% 29.81 in 10.0 mi NE 20.7 mph - N/A   Overcast
9:34 PM 23.0 °F 9.2 °F 17.6 °F 80% 29.81 in 10.0 mi NE 17.3 mph - N/A   Overcast
9:54 PM 23.0 °F 9.2 °F 17.6 °F 80% 29.81 in 10.0 mi NE 17.3 mph - N/A   Overcast
10:14 PM 23.0 °F 8.7 °F 17.6 °F 80% 29.81 in 10.0 mi NE 18.4 mph - N/A   Overcast
10:34 PM 23.0 °F 9.2 °F 17.6 °F 80% 29.81 in 10.0 mi NE 17.3 mph - N/A   Overcast
10:54 PM 21.2 °F 6.8 °F 17.6 °F 86% 29.82 in 10.0 mi NE 17.3 mph 23.0 mph N/A   Overcast
11:14 PM 21.2 °F 8.3 °F 17.6 °F 86% 29.82 in 10.0 mi NE 13.8 mph 21.9 mph N/A   Overcast
11:34 PM 21.2 °F 6.4 °F 17.6 °F 86% 29.82 in 10.0 mi NE 18.4 mph 21.9 mph N/A   Overcast
11:54 PM 21.2 °F 7.3 °F 17.6 °F 86% 29.82 in 10.0 mi NE 16.1 mph 21.9 mph N/A   Overcast